QZS-2 (MICHIBIKI-2) (42738 NORAD) Tracking and Keplerian Element Data

This shows tracking and keplerian element data for the satellite.

Feedback or suggestion? Click here.




ElementValue
Catalog42738
NameQZS-2 (MICHIBIKI-2)
Epoch Orbit658
Epoch Day76.87929411
Epoch Year2019
RAAN280.7804
Inclination43.7514
Eccentricity0.0742625
Argument of Perigee270.7054
Mean Anonmoly80.0082
Mean Motion1.00263949
Decay Rate-1.51E-06
L11 42738U 17028A 19076.87929411 -.00000151 00000-0 00000+0 0 9993
L22 42738 43.7514 280.7804 0742625 270.7054 80.0082 1.00263949 6581

Live tracking and technical data element details for QZS-2 (MICHIBIKI-2) (NORAD 42738). QZS-2 (MICHIBIKI-2) can be tracked NOW for your location showing map with azimuth and elevation plus other details from your city location.

Track the satellite on the map from your city or location and see movement details for azimuth, elevation, latitude, longitude, range, height, and movement on the map or in text.







IsCatalogInMostPopularTable: catalog: 42738, numindb: 216
Update: records affected: 1



GetName: 42738 QZS-2 (MICHIBIKI-2)

Hit Count: updated at: Wed, 20 Mar 2019 04:50:30 GMT